When you browse on this site, cookies collect data to enhance your experience and personalize the content and advertising you see.
Visit our Privacy Policy to learn more. By continuing to use the site, you agree to this use of cookies and data.
  • In Lithuania
  • List of Countries
  • For 7 days
  • Water Temperature
  • Satellite Maps
  • Weather Map
  • Weather Widgets
  • user-avatar
    Login

    Hourly Weather Mitrofanovka

    Today, 26 April, Friday

    Time Temperature Precipitation Wind Pressure Humidity
    00:00 +4°C° 0 mm 3 mps 738 mmHg 90%
    01:00 +3°C° 0.1 mm 3 mps 738 mmHg 89%
    02:00 +2°C° 0.1 mm 3 mps 738 mmHg 89%
    03:00 +1°C° 0.1 mm 3 mps 739 mmHg 89%
    04:00 0°C° 0 mm 3 mps 739 mmHg 88%
    05:00 +1°C° 0 mm 2 mps 740 mmHg 87%
    06:00 -1°C° 0 mm 2 mps 740 mmHg 86%
    07:00 +1°C° 0 mm 2 mps 740 mmHg 80%
    08:00 +2°C° 0 mm 2 mps 741 mmHg 75%
    09:00 +5°C° 0 mm 1 mps 741 mmHg 69%
    10:00 +4°C° 0.6 mm 2 mps 741 mmHg 72%
    11:00 +4°C° 0.6 mm 2 mps 741 mmHg 75%
    12:00 +4°C° 0.6 mm 2 mps 740 mmHg 78%
    13:00 +4°C° 0.4 mm 4 mps 740 mmHg 71%
    14:00 +4°C° 0.4 mm 6 mps 741 mmHg 64%
    15:00 +5°C° 0.4 mm 7 mps 741 mmHg 58%
    16:00 +3°C° 0.1 mm 7 mps 741 mmHg 61%
    17:00 +2°C° 0.1 mm 7 mps 742 mmHg 63%
    18:00 0°C° 0.1 mm 7 mps 742 mmHg 66%
    19:00 -1°C° 0 mm 6 mps 743 mmHg 71%
    20:00 -2°C° 0 mm 4 mps 744 mmHg 75%
    21:00 -2°C° 0 mm 3 mps 745 mmHg 79%
    22:00 -3°C° 0 mm 2 mps 745 mmHg 82%
    23:00 -3°C° 0 mm 2 mps 746 mmHg 85%

    Tomorrow, 27 April, Saturday

    Time Temperature Precipitation Wind Pressure Humidity
    00:00 -4°C° 0 mm 2 mps 746 mmHg 88%
    01:00 -4°C° 0 mm 2 mps 746 mmHg 89%
    02:00 -4°C° 0 mm 2 mps 746 mmHg 90%
    03:00 -5°C° 0 mm 2 mps 746 mmHg 91%
    04:00 -5°C° 0 mm 2 mps 747 mmHg 88%
    05:00 -5°C° 0 mm 2 mps 747 mmHg 85%
    06:00 -5°C° 0 mm 2 mps 747 mmHg 82%
    07:00 -4°C° 0 mm 2 mps 747 mmHg 71%
    08:00 -4°C° 0 mm 3 mps 747 mmHg 59%
    09:00 -2°C° 0 mm 3 mps 747 mmHg 48%
    10:00 -1°C° 0 mm 3 mps 747 mmHg 45%
    11:00 -1°C° 0 mm 3 mps 748 mmHg 43%
    12:00 0°C° 0 mm 3 mps 748 mmHg 40%
    13:00 0°C° 0 mm 3 mps 748 mmHg 40%
    14:00 0°C° 0 mm 3 mps 748 mmHg 40%
    15:00 +1°C° 0 mm 3 mps 748 mmHg 40%
    16:00 +1°C° 0 mm 3 mps 748 mmHg 41%
    17:00 +2°C° 0 mm 2 mps 749 mmHg 41%
    18:00 +3°C° 0 mm 1 mps 749 mmHg 42%
    19:00 +1°C° 0 mm 2 mps 748 mmHg 47%
    20:00 -1°C° 0 mm 2 mps 748 mmHg 51%
    21:00 -2°C° 0 mm 2 mps 748 mmHg 56%
    22:00 -2°C° 0 mm 3 mps 747 mmHg 53%
    23:00 -3°C° 0 mm 4 mps 747 mmHg 50%

    Day after tomorrow, 28 April, Sunday

    Time Temperature Precipitation Wind Pressure Humidity
    00:00 -2°C° 0 mm 5 mps 746 mmHg 48%
    01:00 -2°C° 0 mm 5 mps 745 mmHg 46%
    02:00 -1°C° 0 mm 5 mps 744 mmHg 45%
    03:00 0°C° 0 mm 5 mps 743 mmHg 44%
    04:00 -1°C° 0.5 mm 5 mps 743 mmHg 56%
    05:00 -1°C° 0.5 mm 5 mps 743 mmHg 67%
    06:00 -1°C° 0.5 mm 5 mps 742 mmHg 79%
    07:00 -2°C° 0.1 mm 6 mps 743 mmHg 75%
    08:00 -3°C° 0.1 mm 7 mps 744 mmHg 71%
    09:00 -3°C° 0.1 mm 7 mps 744 mmHg 67%
    10:00 -2°C° 0 mm 7 mps 746 mmHg 62%
    11:00 -2°C° 0 mm 7 mps 747 mmHg 57%
    12:00 -1°C° 0 mm 6 mps 748 mmHg 53%
    13:00 -1°C° 0 mm 6 mps 749 mmHg 50%
    14:00 +1°C° 0 mm 5 mps 750 mmHg 47%
    15:00 +1°C° 0 mm 4 mps 751 mmHg 44%
    16:00 +1°C° 0.1 mm 4 mps 751 mmHg 50%
    17:00 +1°C° 0.1 mm 3 mps 751 mmHg 55%
    18:00 +1°C° 0.1 mm 3 mps 751 mmHg 60%
    19:00 +1°C° 0.2 mm 2 mps 751 mmHg 70%
    20:00 -1°C° 0.2 mm 2 mps 750 mmHg 81%
    21:00 0°C° 0.2 mm 1 mps 750 mmHg 91%
    22:00 -2°C° 0.8 mm 2 mps 749 mmHg 92%
    23:00 -2°C° 0.8 mm 3 mps 748 mmHg 93%

    29 April, Monday

    Time Temperature Precipitation Wind Pressure Humidity
    00:00 -3°C° 0.8 mm 4 mps 747 mmHg 94%
    01:00 -3°C° 0.4 mm 4 mps 746 mmHg 94%
    02:00 -2°C° 0.4 mm 4 mps 745 mmHg 94%
    03:00 -1°C° 0.4 mm 3 mps 744 mmHg 93%
    04:00 0°C° 0 mm 3 mps 743 mmHg 90%
    05:00 +1°C° 0 mm 3 mps 742 mmHg 87%
    06:00 +2°C° 0 mm 3 mps 741 mmHg 84%
    07:00 +5°C° 0 mm 4 mps 741 mmHg 77%
    08:00 +7°C° 0 mm 5 mps 740 mmHg 71%
    09:00 +9°C° 0 mm 7 mps 739 mmHg 64%
    10:00 +10°C° 0 mm 7 mps 739 mmHg 63%
    11:00 +12°C° 0 mm 7 mps 738 mmHg 62%
    12:00 +14°C° 0 mm 7 mps 738 mmHg 60%
    13:00 +14°C° 0 mm 7 mps 737 mmHg 61%
    14:00 +14°C° 0 mm 7 mps 736 mmHg 61%
    15:00 +14°C° 0 mm 7 mps 735 mmHg 61%
    16:00 +14°C° 0.1 mm 7 mps 735 mmHg 62%
    17:00 +14°C° 0.1 mm 7 mps 735 mmHg 63%
    18:00 +15°C° 0.1 mm 8 mps 734 mmHg 64%
    19:00 +11°C° 1 mm 7 mps 735 mmHg 70%
    20:00 +8°C° 1 mm 7 mps 736 mmHg 76%
    21:00 +4°C° 1 mm 6 mps 737 mmHg 82%
    22:00 +2°C° 0 mm 6 mps 738 mmHg 80%
    23:00 -1°C° 0 mm 6 mps 739 mmHg 79%

    30 April, Tuesday

    Time Temperature Precipitation Wind Pressure Humidity
    00:00 -2°C° 0 mm 5 mps 741 mmHg 77%
    01:00 -2°C° 0 mm 5 mps 741 mmHg 77%
    02:00 -3°C° 0 mm 4 mps 742 mmHg 76%
    03:00 -4°C° 0 mm 4 mps 743 mmHg 76%
    04:00 -4°C° 0 mm 4 mps 744 mmHg 76%
    05:00 -4°C° 0 mm 3 mps 745 mmHg 77%
    06:00 -4°C° 0 mm 3 mps 746 mmHg 77%
    07:00 -2°C° 0 mm 2 mps 746 mmHg 72%
    08:00 -1°C° 0 mm 2 mps 747 mmHg 67%
    09:00 +1°C° 0 mm 1 mps 747 mmHg 61%
    10:00 +3°C° 0 mm 1 mps 747 mmHg 56%
    11:00 +5°C° 0 mm 1 mps 747 mmHg 51%
    12:00 +6°C° 0 mm 0 mps 747 mmHg 46%
    13:00 +7°C° 0 mm 1 mps 747 mmHg 45%
    14:00 +7°C° 0 mm 1 mps 746 mmHg 43%
    15:00 +6°C° 0 mm 2 mps 746 mmHg 42%
    16:00 +5°C° 0.1 mm 2 mps 745 mmHg 47%
    17:00 +4°C° 0.1 mm 2 mps 744 mmHg 53%
    18:00 +3°C° 0.1 mm 2 mps 744 mmHg 58%
    19:00 +2°C° 0 mm 3 mps 743 mmHg 61%
    20:00 +2°C° 0 mm 3 mps 742 mmHg 64%
    21:00 +1°C° 0 mm 4 mps 741 mmHg 67%
    22:00 +1°C° 0.3 mm 4 mps 740 mmHg 72%
    23:00 +1°C° 0.3 mm 4 mps 738 mmHg 77%

    1 May, Wednesday

    Time Temperature Precipitation Wind Pressure Humidity
    00:00 +1°C° 0.3 mm 4 mps 737 mmHg 82%
    01:00 +1°C° 0.3 mm 4 mps 735 mmHg 86%
    02:00 +1°C° 0.3 mm 4 mps 734 mmHg 90%
    03:00 +1°C° 0.3 mm 4 mps 732 mmHg 93%
    04:00 +4°C° 0.4 mm 4 mps 731 mmHg 92%
    05:00 +5°C° 0.4 mm 4 mps 730 mmHg 90%
    06:00 +8°C° 0.4 mm 3 mps 729 mmHg 89%
    07:00 +8°C° 0.3 mm 5 mps 728 mmHg 83%
    08:00 +10°C° 0.3 mm 6 mps 728 mmHg 77%
    09:00 +12°C° 0.3 mm 7 mps 727 mmHg 71%
    10:00 +10°C° 0.4 mm 8 mps 727 mmHg 68%
    11:00 +8°C° 0.4 mm 9 mps 727 mmHg 65%
    12:00 +7°C° 0.4 mm 10 mps 727 mmHg 61%
    13:00 +3°C° 0.3 mm 10 mps 729 mmHg 68%
    14:00 +1°C° 0.3 mm 10 mps 730 mmHg 75%
    15:00 -3°C° 0.3 mm 10 mps 732 mmHg 81%
    16:00 -4°C° 0.3 mm 10 mps 735 mmHg 79%
    17:00 -4°C° 0.3 mm 9 mps 737 mmHg 77%
    18:00 -4°C° 0.3 mm 9 mps 740 mmHg 74%
    19:00 -5°C° 0.1 mm 8 mps 741 mmHg 74%
    20:00 -4°C° 0.1 mm 7 mps 743 mmHg 74%
    21:00 -4°C° 0.1 mm 7 mps 745 mmHg 74%
    22:00 -5°C° 0 mm 6 mps 746 mmHg 76%
    23:00 -5°C° 0 mm 5 mps 747 mmHg 78%
    Show more